TimeCDT,TemperatureF,Dew PointF,Humidity,Sea Level PressureIn,VisibilityMPH,Wind Direction,Wind SpeedMPH,Gust SpeedMPH,PrecipitationIn,Events,Conditions,WindDirDegrees,DateUTC
12:15 AM,59.0,59.0,100,29.90,0.8,SSE,3.5,-,N/A,,Overcast,150,2012-10-24 05:15:00
12:55 AM,59.0,59.0,100,29.89,0.2,ESE,3.5,-,N/A,Fog,Fog,120,2012-10-24 05:55:00
1:35 AM,59.0,59.0,100,29.90,0.5,Calm,Calm,-,N/A,Fog,Fog,0,2012-10-24 06:35:00
2:55 AM,59.0,59.0,100,29.88,0.5,Calm,Calm,-,N/A,Fog,Fog,0,2012-10-24 07:55:00
3:15 AM,59.0,59.0,100,29.88,0.2,Calm,Calm,-,N/A,Fog,Fog,0,2012-10-24 08:15:00
3:35 AM,59.0,59.0,100,29.88,0.2,Calm,Calm,-,N/A,Fog,Fog,0,2012-10-24 08:35:00
3:55 AM,59.0,59.0,100,29.88,0.2,Calm,Calm,-,N/A,Fog,Fog,0,2012-10-24 08:55:00
4:15 AM,59.0,59.0,100,29.88,0.2,Calm,Calm,-,N/A,Fog,Fog,0,2012-10-24 09:15:00
4:35 AM,59.0,59.0,100,29.89,0.5,Calm,Calm,-,N/A,Fog,Fog,0,2012-10-24 09:35:00
4:55 AM,59.0,59.0,100,29.89,0.2,Calm,Calm,-,N/A,Fog,Fog,0,2012-10-24 09:55:00
5:15 AM,59.0,59.0,100,29.89,0.2,Calm,Calm,-,N/A,Fog,Fog,0,2012-10-24 10:15:00
5:55 AM,57.2,57.2,100,29.89,0.2,Calm,Calm,-,N/A,Fog,Fog,0,2012-10-24 10:55:00
6:15 AM,57.2,57.2,100,29.89,0.2,Calm,Calm,-,0.01,Fog,Fog,0,2012-10-24 11:15:00
6:35 AM,57.2,57.2,100,29.90,0.2,Calm,Calm,-,0.01,Fog,Fog,0,2012-10-24 11:35:00
6:55 AM,57.2,57.2,100,29.90,0.2,Calm,Calm,-,0.01,Fog,Fog,0,2012-10-24 11:55:00
7:15 AM,57.2,55.4,94,29.91,0.2,Calm,Calm,-,N/A,Fog,Fog,0,2012-10-24 12:15:00
7:55 AM,57.2,57.2,100,29.90,0.2,Calm,Calm,-,N/A,Fog,Fog,0,2012-10-24 12:55:00
8:15 AM,57.2,55.4,94,29.91,0.2,Calm,Calm,-,N/A,Fog,Fog,0,2012-10-24 13:15:00
8:35 AM,59.0,59.0,100,29.90,0.2,Calm,Calm,-,N/A,Fog,Fog,0,2012-10-24 13:35:00
8:55 AM,59.0,59.0,100,29.91,1.2,Calm,Calm,-,N/A,,Overcast,0,2012-10-24 13:55:00
9:15 AM,60.8,60.8,100,29.91,1.8,Calm,Calm,-,N/A,,Overcast,0,2012-10-24 14:15:00
9:35 AM,60.8,60.8,100,29.91,3.0,Calm,Calm,-,N/A,,Scattered Clouds,0,2012-10-24 14:35:00
9:55 AM,62.6,62.6,100,29.91,7.0,SSW,3.5,-,N/A,,Mostly Cloudy,200,2012-10-24 14:55:00
10:15 AM,64.4,64.4,100,29.90,10.0,SSW,4.6,-,N/A,,Overcast,200,2012-10-24 15:15:00
10:35 AM,64.4,64.4,100,29.90,10.0,SW,6.9,-,N/A,,Mostly Cloudy,230,2012-10-24 15:35:00
10:55 AM,68.0,64.4,88,29.90,10.0,SSW,6.9,-,N/A,,Overcast,210,2012-10-24 15:55:00
11:15 AM,68.0,64.4,88,29.89,10.0,SSW,4.6,-,N/A,,Overcast,200,2012-10-24 16:15:00
11:35 AM,68.0,62.6,83,29.89,10.0,SW,5.8,-,N/A,,Scattered Clouds,220,2012-10-24 16:35:00
11:55 AM,69.8,64.4,83,29.89,10.0,SSE,4.6,-,N/A,,Clear,160,2012-10-24 16:55:00
12:15 PM,69.8,62.6,78,29.88,10.0,SSE,5.8,-,N/A,,Clear,160,2012-10-24 17:15:00
12:55 PM,73.4,64.4,73,29.86,10.0,SE,8.1,-,N/A,,Clear,140,2012-10-24 17:55:00
1:15 PM,73.4,64.4,73,29.86,10.0,South,9.2,-,N/A,,Scattered Clouds,180,2012-10-24 18:15:00
1:55 PM,75.2,64.4,69,29.84,10.0,South,6.9,-,N/A,,Mostly Cloudy,180,2012-10-24 18:55:00
2:15 PM,75.2,62.6,65,29.84,10.0,SSE,8.1,-,N/A,,Mostly Cloudy,160,2012-10-24 19:15:00
2:35 PM,75.2,62.6,65,29.84,10.0,SE,5.8,-,N/A,,Overcast,140,2012-10-24 19:35:00
2:55 PM,75.2,62.6,65,29.84,10.0,South,9.2,-,N/A,,Overcast,170,2012-10-24 19:55:00
3:15 PM,75.2,62.6,65,29.83,10.0,South,5.8,-,N/A,,Overcast,170,2012-10-24 20:15:00
4:15 PM,71.6,62.6,73,29.82,10.0,SE,6.9,-,N/A,,Overcast,130,2012-10-24 21:15:00
4:55 PM,71.6,60.8,69,29.83,10.0,SE,4.6,-,N/A,,Overcast,130,2012-10-24 21:55:00
5:15 PM,69.8,60.8,73,29.82,10.0,SE,5.8,-,N/A,,Overcast,130,2012-10-24 22:15:00
5:35 PM,69.8,60.8,73,29.83,10.0,SE,6.9,-,N/A,,Overcast,130,2012-10-24 22:35:00
5:55 PM,68.0,60.8,78,29.82,10.0,SE,5.8,-,N/A,,Scattered Clouds,130,2012-10-24 22:55:00
6:15 PM,68.0,60.8,78,29.82,10.0,SE,6.9,-,N/A,,Clear,130,2012-10-24 23:15:00
6:35 PM,68.0,60.8,78,29.82,10.0,SE,5.8,-,N/A,,Clear,130,2012-10-24 23:35:00
6:55 PM,68.0,60.8,78,29.83,10.0,SE,3.5,-,N/A,,Clear,140,2012-10-24 23:55:00
7:15 PM,66.2,60.8,83,29.83,10.0,SE,4.6,-,N/A,,Clear,130,2012-10-25 00:15:00
7:35 PM,66.2,60.8,83,29.82,10.0,SE,4.6,-,N/A,,Clear,130,2012-10-25 00:35:00
7:55 PM,66.2,60.8,83,29.83,10.0,Calm,Calm,-,N/A,,Scattered Clouds,0,2012-10-25 00:55:00
8:15 PM,66.2,60.8,83,29.83,10.0,Calm,Calm,-,N/A,,Mostly Cloudy,0,2012-10-25 01:15:00
8:35 PM,66.2,60.8,83,29.82,10.0,SE,3.5,-,N/A,,Mostly Cloudy,130,2012-10-25 01:35:00
8:55 PM,66.2,60.8,83,29.82,10.0,SSE,4.6,-,N/A,,Scattered Clouds,150,2012-10-25 01:55:00
9:15 PM,64.4,60.8,88,29.81,10.0,SSE,5.8,-,N/A,,Clear,150,2012-10-25 02:15:00
9:35 PM,66.2,60.8,83,29.82,10.0,SSE,5.8,-,N/A,,Clear,160,2012-10-25 02:35:00
9:55 PM,64.4,60.8,88,29.81,10.0,South,5.8,-,N/A,,Clear,170,2012-10-25 02:55:00
10:15 PM,64.4,62.6,94,29.81,10.0,SSE,4.6,-,N/A,,Clear,150,2012-10-25 03:15:00
10:35 PM,64.4,62.6,94,29.80,10.0,SSE,5.8,-,N/A,,Scattered Clouds,160,2012-10-25 03:35:00
10:55 PM,68.0,62.6,83,29.80,10.0,South,8.1,-,N/A,,Scattered Clouds,180,2012-10-25 03:55:00
11:15 PM,68.0,62.6,83,29.80,10.0,South,9.2,-,N/A,,Scattered Clouds,190,2012-10-25 04:15:00
11:35 PM,69.8,62.6,78,29.79,10.0,South,10.4,-,N/A,,Scattered Clouds,180,2012-10-25 04:35:00